This demonstration page uses our WeatherBlox Daily Observations layout. Learn more.

Left ArrowRight Arrow

34.74481, -87.66753

Hourly Observations for March 28, 2021

Temp ( °F °C ) Dew Point ( °F °C ) Humidity (%) Winds ( mph kmh ) Pressure ( in mb ) Visibility ( mi km ) Precip ( " mm )
12:53 am 00:53 Mostly Cloudy 76 24.4 65 18.3 69 69 SSW 17 28 29.83 1010 10 16 0.00 0.00
1:07 am 01:07 Mostly Cloudy 76 24.4 65 18.3 69 69 SSW 17 28 29.82 1010 10 16 0.00 0.00
1:53 am 01:53 Cloudy 76 24.4 65 18.3 69 69 SSW 18 30 29.79 1009 10 16 0.00 0.00
2:13 am 02:13 Cloudy with Nearby Thunderstorms 75 23.9 65 18.3 71 71 SSW 18 30 29.79 1009 10 16 0.00 0.00
2:18 am 02:18 Windy with Storms Likely 75 23.9 65 18.3 71 71 SW 20 31 29.80 1009 10 16 0.00 0.00
2:34 am 02:34 Cloudy with Thunderstorms 68 20 60 15.6 76 76 NW 16 26 29.83 1010 5 8 0.00 0.00
2:53 am 02:53 Cloudy with Thunderstorms 66 18.9 61 16.1 84 84 WNW 10 17 29.82 1010 6 10 0.00 0.00
2:56 am 02:56 Cloudy with Nearby Thunderstorms 66 18.9 61 16.1 84 84 NNW 8 13 29.82 1010 5 8 0.00 0.00
3:05 am 03:05 Cloudy with Strong Thunderstorms 66 18.9 60 15.6 81 81 WNW 15 24 29.83 1010 2 3 0.00 0.00
3:10 am 03:10 Cloudy with Strong Thunderstorms 65 18.3 60 15.6 84 84 W 9 15 29.82 1010 1 2 0.00 0.00
3:36 am 03:36 Cloudy with Strong Thunderstorms 66 18.9 61 16.1 84 84 WSW 16 26 29.82 1010 3 5 0.00 0.00
3:45 am 03:45 Cloudy with Nearby Thunderstorms 66 18.9 61 16.1 84 84 SSW 12 19 29.82 1010 5 8 0.00 0.00
3:53 am 03:53 Cloudy with Nearby Thunderstorms 65 18.3 60 15.6 84 84 SW 8 13 29.79 1009 4 6 0.00 0.00
4:04 am 04:04 Cloudy with Nearby Thunderstorms 65 18.3 60 15.6 84 84 SW 10 17 29.82 1010 4 6 0.01 0.25
4:53 am 04:53 Cloudy with Nearby Thunderstorms 65 18.3 60 15.6 84 84 SSW 10 17 29.81 1009 4 6 0.16 4.06
5:04 am 05:04 Cloudy with Heavy Rain 66 18.9 61 16.1 84 84 WSW 6 9 29.79 1009 3 5 0.03 0.76
5:12 am 05:12 Cloudy with Rain 66 18.9 61 16.1 84 84 undefined N/A 29.81 1009 3 4 0.06 1.52
5:20 am 05:20 Cloudy with Rain 66 18.9 61 16.1 84 84 WSW 7 11 29.80 1009 4 6 0.08 2.03
5:32 am 05:32 Cloudy with Rain 66 18.9 61 16.1 84 84 SW 9 15 29.82 1010 4 6 0.12 3.05
5:44 am 05:44 Cloudy with Rain 66 18.9 61 16.1 84 84 SW 9 15 29.84 1010 3 5 0.16 4.06
5:51 am 05:51 Cloudy with Heavy Rain 66 19 61 16 83 83 WSW 12 19 29.85 1011 4 6 0.19 4.83
5:53 am 05:53 Cloudy with Heavy Rain 66 18.9 61 16.1 84 84 WNW 17 28 29.85 1011 4 6 0.19 4.83
6:01 am 06:01 Cloudy with Rain 63 17.2 57 13.9 81 81 NNW 12 19 29.86 1011 3 5 0.03 0.76
6:21 am 06:21 Cloudy with Rain 61 16.1 55 12.8 81 81 NW 15 24 29.90 1012 5 8 0.10 2.54
6:53 am 06:53 Mostly Cloudy with Light Rain 60 15.6 55 12.8 84 84 NW 13 20 29.93 1013 6 10 0.19 4.83
7:05 am 07:05 Mostly Cloudy 59 15 54 12.2 83 83 NW 10 17 29.94 1014 10 16 0.03 0.76
7:53 am 07:53 Mostly Sunny 59 15 53 11.7 81 81 NNW 7 11 29.94 1014 10 16 0.16 4.06
8:37 am 08:37 Mostly Cloudy 60 15.6 53 11.7 78 78 NNW 15 24 29.99 1015 10 16 0.02 0.51
8:53 am 08:53 Cloudy 59 15 50 10 72 72 NW 12 19 29.99 1016 10 16 0.02 0.51
9:16 am 09:16 Partly Cloudy 60 15.6 49 9.4 67 67 NNW 13 20 30.02 1016 10 16 0.00 0.00
9:53 am 09:53 Mostly Cloudy 60 15.6 48 8.9 65 65 NW 16 26 30.04 1017 10 16 0.00 0.00
10:09 am 10:09 Mostly Cloudy 62 16.7 48 8.9 60 60 NW 13 20 30.05 1018 10 16 0.00 0.00
10:53 am 10:53 Mostly Sunny 63 17.2 44 6.7 50 50 NNW 15 24 30.05 1018 10 16 0.00 0.00
11:53 am 11:53 Sunny 63 17.2 35 1.7 35 35 NW 12 19 30.07 1018 10 16 0.00 0.00
12:53 pm 12:53 Sunny 63 17.2 40 4.4 43 43 WNW 14 22 30.08 1019 10 16 0.00 0.00
1:53 pm 13:53 Sunny 64 17.8 39 3.9 40 40 W 20 31 30.08 1019 10 16 0.00 0.00
2:53 pm 14:53 Sunny 65 18.3 37 2.8 36 36 NNW 13 20 30.09 1019 10 16 0.00 0.00
3:53 pm 15:53 Mostly Sunny 65 18.3 36 2.2 34 34 WNW 20 31 30.11 1020 10 16 0.00 0.00
4:53 pm 16:53 Sunny 63 17.2 33 0.6 33 33 NNW 16 26 30.13 1020 10 16 0.00 0.00
5:53 pm 17:53 Sunny 60 15.6 33 0.6 36 36 NW 9 15 30.14 1021 10 16 0.00 0.00
6:53 pm 18:53 Sunny 59 15 31 -0.6 35 35 NNW 13 20 30.14 1021 10 16 0.00 0.00
7:53 pm 19:53 Clear 56 13.3 33 0.6 42 42 NNW 7 11 30.17 1022 10 16 0.00 0.00
8:53 pm 20:53 Clear 55 12.8 31 -0.6 40 40 NNW 7 11 30.22 1023 10 16 0.00 0.00
9:53 pm 21:53 Clear 54 12.2 31 -0.6 42 42 NNW 8 13 30.24 1024 10 16 0.00 0.00
10:53 pm 22:53 Clear 52 11.1 32 0 47 47 N 7 11 30.26 1025 10 16 0.00 0.00
11:53 pm 23:53 Clear 51 10.6 31 -0.6 46 46 N 3 6 30.26 1025 10 16 0.00 0.00

Powered by AerisWeather